星链-2343 (STARLINK-2343 )

导读 | 星芒AI

STARLINK-2343 是 SpaceX Starlink 项目中的一颗低轨通信卫星,旨在为全球用户提供高速互联网服务。该卫星属于 Starlink 群体部署的一部分,运行在约 550 公里的近地轨道上,采用先进的推进和通信技术,支持宽带数据传输。其设计具备高可靠性和低延迟特性,有助于改善偏远地区的网络接入。该卫星的发射和运行符合 SpaceX 扩展全球互联网覆盖、推动数字包容的战略目标。

基本信息
目录编号:
47884
目录名称:
STARLINK-2343
国际标识:
2021-021AA
轨道中心:
EARTH
卫星名称:
星链-2343
卫星全名:
星链-2343 (STARLINK-2343 )
卫星状态:
在轨 (已飞行1691 天)
发射日期:
2021-03-14 UTC
国别 :
美国 (US)
星等 :
--
轨道信息
数据来源 国际轨道数据 AOE轨道数据
星历时间 2025-10-30T04:19:58+0800
11小时前
查看轨道信息
2025-10-23T18:00:00+0800
6天前
查看轨道信息
半长轴 6925.337km 6925.349km
偏心率 0.000157 0.0001191
轨道倾角 53.054° 53.052°
近地点辐角 102.570° 101.047°
升交点赤经 148.995° 177.862°
平近点角 257.546° 286.791°
近地点 546.114km 546.389km
远地点 548.29km 548.039km
周期 95.592分钟 95.592分钟
每日圈数 15.064038 15.064
详细信息
固有亮度:
5
最大亮度:
2.5
卫星平台:
Starlink V1.0
覆盖范围:
全球
运营商:
太空探索技术公司
运营商所在国:
美国
制造商(研发单位):
太空探索技术公司
制造商所在国:
美国
使用方式:
暂无
卫星简介
星链(Starlink)计划是由太空探索技术公司(SpaceX)提出的一个巨型低轨卫星互联网星座项目,计划在2019年至2024年间在太空搭建由约1.2万颗卫星组成的“星链”网络,其中1584颗将部署在地球上空550千米处的近地轨道,并从2020年开始工作。该卫星仍在工作。
2D轨道图
3D轨道图
轨道高度分析图
轨道倾角分析图
轨道综合分析图
查看轨道综合分析图